Вернуться в каталог

NOAA 16 DEB

АктивенPO
NORAD 41405·DEBRIS·🇺🇸 United States

Запущен Sep 21, 2000 с Vandenberg Space Force Base

Loading…

Ближайшие Пролёты (ближайшие 24 часа)

TLE

СвежийSource: Space-Track

Эпоха: Sep 14, 2026, 08:54 UTC

1 41405U 00055KJ  26257.37135901  .00011390  00000-0  21965-2 0  9994
2 41405  98.8545  44.9455 0008915  78.7887 281.4315 14.63647297548510

Отслеживайте NOAA 16 DEB в реальном времени с AllMySat

Download on the App Store